GW6245 Weather Reports


time (UTC)temp
C
wind
direction
speed
KPH
gust
KPH
rain 1hr
cm
rain 24hr
cm
rain mn
cm
humidity
%
barometer
mb
20260906103606 20 88 0.0 0.0 0.00 0.03 0.03 99 996.2
20260906103101 20 85 0.0 0.0 0.18 0.03 0.03 99 996.4
20260906102601 20 91 0.0 0.0 0.18 0.03 0.03 99 996.1
20260906102056 20 91 0.0 0.0 0.00 0.00 0.00 99 996.1
20260906101551 20 92 0.0 0.0 0.00 0.00 0.00 99 996.2
20260906101045 20 92 0.0 0.0 0.00 0.00 0.00 99 995.8
20260906100541 20 92 0.0 0.0 0.00 0.00 0.00 99 995.7
20260906100041 21 98 0.0 0.0 0.00 0.00 0.00 99 995.8
20260906095535 21 98 0.0 0.0 0.00 0.00 0.00 99 995.8
20260906095031 21 92 0.0 0.0 0.00 0.00 0.00 99 995.7
20260906094530 21 88 0.0 0.0 0.00 0.00 0.00 99 995.8
20260906094021 21 93 0.0 0.0 0.00 0.00 0.00 99 995.7
20260906093516 21 94 0.0 0.0 0.00 0.00 0.00 99 995.5
20260906093010 21 90 0.0 0.0 0.00 0.00 0.00 99 995.7
20260906092505 21 90 0.0 0.0 0.00 0.00 0.00 99 995.6
20260906092000 21 86 0.0 0.0 0.00 0.00 0.00 99 995.6
20260906091456 21 104 1.6 1.6 0.00 0.00 0.00 99 995.6
20260906090953 21 97 0.0 0.0 0.00 0.00 0.00 99 995.4
20260906090448 21 98 0.0 0.0 0.00 0.00 0.00 99 995.4
20260906085947 21 98 0.0 0.0 0.00 0.00 0.00 99 995.7
20260906085446 21 93 0.0 0.0 0.00 0.00 0.00 99 995.3
20260906084946 21 97 0.0 0.0 0.00 0.00 0.00 99 995.4
20260906084441 21 102 0.0 1.6 0.00 0.00 0.00 99 995.4
20260906083939 21 122 1.6 1.6 0.00 0.00 0.00 99 995.2
20260906083436 21 99 0.0 0.0 0.00 0.00 0.00 99 995.2
20260906082934 21 101 0.0 0.0 0.00 0.00 0.00 99 995.2
20260906082430 21 110 0.0 1.6 0.00 0.00 0.00 99 995.1
20260906081926 21 140 1.6 3.2 0.00 0.00 0.00 99 995.1
20260906081421 21 123 1.6 1.6 0.00 0.00 0.00 99 995.1
20260906080917 21 95 0.0 0.0 0.00 0.00 0.00 99 994.8
20260906080414 21 90 0.0 0.0 0.00 0.00 0.00 99 995.0
20260906075913 21 88 0.0 0.0 0.00 0.00 0.00 99 994.8
20260906075408 21 91 0.0 0.0 0.00 0.00 0.00 99 995.0
20260906074903 21 81 0.0 1.6 0.00 0.00 0.00 99 994.9
20260906074402 21 84 0.0 0.0 0.00 0.00 0.00 99 995.1
20260906073901 21 117 0.0 1.6 0.00 0.00 0.00 99 994.9
20260906073356 21 100 0.0 0.0 0.00 0.00 0.00 99 995.2
20260906072853 21 100 0.0 1.6 0.00 0.00 0.00 99 995.1
20260906072348 21 92 0.0 0.0 0.00 0.00 0.00 99 995.3
20260906071845 21 91 0.0 0.0 0.00 0.00 0.00 99 995.1
20260906071345 21 90 0.0 0.0 0.00 0.00 0.00 99 995.1
20260906070841 21 96 0.0 0.0 0.00 0.00 0.00 99 995.3
20260906070337 21 96 0.0 0.0 0.00 0.00 0.00 99 995.3
20260906065832 21 87 0.0 0.0 0.00 0.00 0.00 99 995.0
20260906065326 21 99 0.0 0.0 0.00 0.00 0.00 99 995.2
20260906064822 21 99 0.0 0.0 0.00 0.00 0.00 99 995.5
20260906064318 21 99 0.0 0.0 0.00 0.00 0.00 99 995.6
20260906063813 21 99 0.0 0.0 0.00 0.00 0.00 99 995.4
20260906063309 21 99 0.0 0.0 0.00 0.00 0.00 99 995.6
20260906062809 21 99 0.0 0.0 0.00 0.00 0.00 99 995.7
20260906062308 21 99 0.0 0.0 0.00 0.00 0.00 99 995.4
20260906061804 21 99 0.0 0.0 0.00 0.00 0.00 99 995.7
20260906061300 21 99 0.0 0.0 0.00 0.00 0.00 99 995.6
20260906060755 21 99 0.0 0.0 0.00 0.00 0.00 99 995.5
20260906060252 21 95 0.0 0.0 0.00 0.00 0.00 99 995.7
20260906055748 21 85 0.0 0.0 0.00 0.00 0.00 99 995.6
20260906055243 21 88 0.0 0.0 0.00 0.00 0.00 99 995.5
20260906054738 21 88 0.0 0.0 0.00 0.00 0.00 99 995.9
20260906054233 21 87 0.0 0.0 0.00 0.00 0.00 99 995.8
20260906053730 21 88 0.0 1.6 0.00 0.00 0.00 99 995.9
20260906053226 22 88 0.0 0.0 0.00 0.00 0.00 99 995.8
20260906052720 22 97 0.0 0.0 0.00 0.00 0.00 99 995.7
20260906052217 22 98 0.0 0.0 0.00 0.00 0.00 99 995.6
20260906051714 21 99 0.0 0.0 0.00 0.00 0.00 99 995.7
20260906051213 22 91 0.0 0.0 0.00 0.00 0.00 99 995.8
20260906050708 21 90 0.0 0.0 0.00 0.00 0.00 99 995.8
20260906050203 22 91 0.0 0.0 0.00 0.00 0.00 99 996.0
20260906045702 22 95 0.0 0.0 0.00 0.00 0.00 99 995.9
20260906045157 22 96 0.0 0.0 0.00 0.00 0.00 99 996.1
20260906044653 22 95 0.0 0.0 0.00 0.00 0.00 99 996.1
20260906044148 22 95 0.0 0.0 0.00 0.00 0.00 99 996.3
20260906043644 22 96 0.0 0.0 0.00 0.00 0.00 99 996.2
20260906043140 22 92 0.0 0.0 0.00 0.00 0.00 99 996.2
20260906042639 22 88 0.0 0.0 0.00 0.00 0.00 99 996.4
20260906042133 22 87 0.0 0.0 0.00 0.00 0.00 99 996.2
20260906041629 22 86 0.0 0.0 0.00 0.00 0.00 99 996.3
20260906041130 22 86 0.0 0.0 0.00 0.00 0.00 99 996.3
20260906040625 22 86 0.0 0.0 0.00 0.00 0.00 99 996.3
20260906040120 22 88 0.0 0.0 0.00 0.00 0.00 99 996.3
20260906035615 22 91 0.0 0.0 0.00 1.75 1.75 99 996.3
20260906035112 22 96 0.0 0.0 0.00 1.75 1.75 99 996.6
20260906034611 22 97 1.6 1.6 0.00 1.75 1.75 99 996.3
20260906034106 22 91 0.0 0.0 0.00 1.75 1.75 99 996.3
20260906033602 22 93 0.0 0.0 0.00 1.75 1.75 99 996.5
20260906033057 22 99 0.0 0.0 0.00 1.75 1.75 99 996.5
20260906032554 22 99 0.0 0.0 0.00 1.75 1.75 99 996.5
20260906032053 22 99 0.0 0.0 0.00 1.75 1.75 99 996.6
20260906031549 22 99 0.0 0.0 0.00 1.75 1.75 99 996.3
20260906031044 22 91 0.0 0.0 0.00 1.75 1.75 99 996.4
20260906030544 22 90 0.0 0.0 0.00 1.75 1.75 99 996.4
20260906030044 22 94 0.0 0.0 0.00 1.75 1.75 99 996.3
20260906025543 22 94 0.0 0.0 0.00 1.75 1.75 99 996.4
20260906025042 22 96 0.0 0.0 0.00 1.75 1.75 99 996.2
20260906024538 22 103 0.0 1.6 0.00 1.75 1.75 99 996.2
20260906024037 22 93 0.0 0.0 0.00 1.75 1.75 99 996.2
20260906023533 22 93 0.0 0.0 0.00 1.75 1.75 99 996.1
20260906023028 22 91 0.0 0.0 0.00 1.75 1.75 99 996.0
20260906022523 22 95 0.0 0.0 0.00 1.75 1.75 99 996.2
20260906022019 22 110 0.0 1.6 0.00 1.75 1.75 99 996.5
20260906021515 22 92 0.0 0.0 0.00 1.75 1.75 99 996.4
20260906021008 22 93 0.0 0.0 0.00 1.75 1.75 99 996.2
20260906020507 22 94 0.0 0.0 0.00 1.75 1.75 99 996.2
20260906020007 22 119 1.6 1.6 0.00 1.75 1.75 99 996.4
20260906015506 22 119 1.6 1.6 0.00 1.75 1.75 99 996.4
20260906015007 22 97 1.6 1.6 0.00 1.75 1.75 99 996.3
20260906014501 22 109 1.6 1.6 0.00 1.75 1.75 99 996.2
20260906013957 22 121 1.6 1.6 0.00 1.75 1.75 99 996.3
20260906013452 22 109 1.6 1.6 0.00 1.75 1.75 99 996.4
20260906012948 22 99 0.0 0.0 0.00 1.75 1.75 99 996.1
20260906012442 22 90 0.0 0.0 0.00 1.75 1.75 99 996.1
20260906011942 22 98 0.0 0.0 0.00 1.75 1.75 99 996.1
20260906011437 22 113 1.6 1.6 0.00 1.75 1.75 99 996.2
20260906010932 22 139 1.6 3.2 0.00 1.75 1.75 99 996.0
20260906010428 22 109 1.6 1.6 0.00 1.75 1.75 99 996.0
20260906005924 22 106 0.0 1.6 0.00 1.75 1.75 99 995.8
20260906005423 22 94 0.0 0.0 0.00 1.75 1.75 99 995.9
20260906004922 22 92 0.0 0.0 0.00 1.75 1.75 99 995.7
20260906004416 22 93 0.0 0.0 0.00 1.75 1.75 99 995.9
20260906003912 22 92 0.0 0.0 0.00 1.75 1.75 99 995.8
20260906003407 22 92 0.0 0.0 0.00 1.75 1.75 99 996.0
20260906002902 23 89 0.0 0.0 0.00 1.75 1.75 99 995.9
20260906002402 22 89 0.0 0.0 0.00 1.75 1.75 99 995.6
20260906001857 23 95 0.0 0.0 0.00 1.75 1.75 99 995.7
20260906001354 23 95 0.0 0.0 0.00 1.75 1.75 99 995.7
20260906000853 23 94 1.6 1.6 0.00 1.75 1.75 99 995.3
20260906000355 23 94 0.0 0.0 0.00 1.75 1.75 99 995.6
20260905235848 23 87 0.0 0.0 0.00 1.75 1.75 99 995.4
20260905235343 23 81 1.6 1.6 0.00 1.75 1.75 99 995.3
20260905234838 23 96 0.0 1.6 0.00 1.75 1.75 99 995.1
20260905234333 23 98 0.0 0.0 0.00 1.75 1.75 99 995.1
20260905233828 23 100 1.6 1.6 0.00 1.75 1.75 99 994.9
20260905233323 23 109 1.6 1.6 0.00 1.75 1.75 99 994.9
20260905232822 23 100 0.0 1.6 0.00 1.75 1.75 99 994.8
20260905232319 23 130 0.0 1.6 0.00 1.75 1.75 99 995.0
20260905231814 23 101 1.6 1.6 0.00 1.75 1.75 99 995.0
20260905231309 23 101 0.0 1.6 0.00 1.75 1.75 99 995.0
20260905230805 23 95 0.0 0.0 0.00 1.75 1.75 99 995.0
20260905230303 23 95 0.0 0.0 0.00 1.75 1.75 99 995.0
20260905225803 23 93 0.0 0.0 0.00 1.75 1.75 99 995.3
20260905225258 23 102 0.0 0.0 0.00 1.75 1.75 99 995.1
20260905224757 23 128 1.6 1.6 0.00 1.75 1.75 99 995.2
20260905224253 23 104 0.0 0.0 0.00 1.75 1.75 99 995.0
20260905223748 23 87 0.0 0.0 0.00 1.75 1.75 99 995.0
20260905223246 23 96 0.0 0.0 0.00 1.75 1.75 99 994.8
20260905222741 22 96 0.0 0.0 0.00 1.75 1.75 99 994.9
20260905222240 23 98 0.0 0.0 0.00 1.75 1.75 99 995.0
20260905221736 23 89 0.0 1.6 0.00 1.75 1.75 99 995.1
20260905221233 22 85 0.0 0.0 0.00 1.75 1.75 99 995.3
20260905220728 22 156 3.2 3.2 0.00 1.75 1.75 99 995.2
20260905220224 23 82 1.6 1.6 0.00 1.75 1.75 99 995.2
20260905215723 23 131 1.6 1.6 0.00 1.75 1.75 99 995.2
20260905215219 23 95 0.0 0.0 0.00 1.75 1.75 99 995.4
20260905214715 23 79 0.0 0.0 0.00 1.75 1.75 99 995.4
20260905214210 22 93 0.0 1.6 0.00 1.75 1.75 99 995.5
20260905213705 23 140 1.6 3.2 0.00 1.75 1.75 99 995.6
20260905213201 23 95 0.0 0.0 0.00 1.75 1.75 99 995.5
20260905212656 23 104 4.8 4.8 0.00 1.75 1.75 99 995.7
20260905212155 23 111 1.6 1.6 0.00 1.75 1.75 99 995.7
20260905211650 23 110 0.0 1.6 0.00 1.75 1.75 99 995.3
20260905211146 22 64 1.6 3.2 0.00 1.75 1.75 99 995.8
20260905210643 22 68 1.6 1.6 0.00 1.75 1.75 99 995.5
20260905210142 22 85 0.0 0.0 0.00 1.75 1.75 99 995.6
20260905205641 22 94 0.0 0.0 0.00 1.75 1.75 99 995.7
20260905205136 22 86 0.0 0.0 0.00 1.75 1.75 99 995.6
20260905204635 23 82 1.6 1.6 0.00 1.75 1.75 99 995.8
20260905204131 22 82 1.6 1.6 0.00 1.75 1.75 99 995.6
20260905203631 22 88 0.0 1.6 0.00 1.75 1.75 99 995.6
20260905203126 22 107 1.6 1.6 0.00 1.75 1.75 99 995.5
20260905202622 22 94 1.6 1.6 0.00 1.75 1.75 99 995.4
20260905202117 22 81 0.0 0.0 0.00 1.75 1.75 99 995.3
20260905201613 22 84 0.0 0.0 0.00 1.75 1.75 99 995.2
20260905201112 22 69 1.6 1.6 0.00 1.75 1.75 99 995.1
20260905200608 22 111 1.6 1.6 0.00 1.75 1.75 99 995.1
20260905195601 21 87 0.0 0.0 0.00 1.75 1.75 99 995.1
20260905195057 21 123 1.6 1.6 0.00 1.75 1.75 99 995.1
20260905194556 21 76 1.6 1.6 0.00 1.75 1.75 99 995.2
20260905194056 21 77 0.0 0.0 0.00 1.75 1.75 99 995.4
20260905193551 21 87 0.0 0.0 0.13 1.75 1.75 99 995.2
20260905193046 22 85 0.0 0.0 0.43 1.75 1.75 99 995.4
20260905192541 22 81 1.6 1.6 1.27 1.73 1.73 99 995.7
20260905192038 21 56 1.6 1.6 1.55 1.68 1.68 99 996.4
20260905191536 21 110 0.0 1.6 2.95 1.57 1.57 99 996.5
20260905191036 21 67 0.0 1.6 8.05 1.42 1.42 99 997.3
20260905190533 21 64 3.2 3.2 6.25 1.04 1.04 98 998.6
20260905190027 26 61 8.0 12.9 1.37 0.23 0.23 87 998.9
20260905185527 31 97 8.0 16.1 0.00 0.00 0.00 64 997.5
20260905185026 35 82 9.7 12.9 0.00 0.00 0.00 56 996.8
20260905184521 36 94 0.0 0.0 0.00 0.00 0.00 57 995.6
20260905184020 36 96 0.0 1.6 0.00 0.00 0.00 57 995.3
20260905183520 36 78 1.6 1.6 0.00 0.00 0.00 52 995.1
20260905183015 36 125 3.2 3.2 0.00 0.00 0.00 58 995.0
20260905182514 37 89 1.6 1.6 0.00 0.00 0.00 53 995.2
20260905182009 38 90 1.6 1.6 0.00 0.00 0.00 52 995.4
20260905181510 37 89 3.2 3.2 0.00 0.00 0.00 53 995.3
20260905181009 36 97 0.0 0.0 0.00 0.00 0.00 56 995.6
20260905180504 36 95 1.6 1.6 0.00 0.00 0.00 56 995.4
20260905175959 36 101 0.0 0.0 0.00 0.00 0.00 55 995.7
20260905175458 36 87 1.6 1.6 0.00 0.00 0.00 54 995.8
20260905174954 36 99 4.8 8.0 0.00 0.00 0.00 53 995.8
20260905174455 37 60 1.6 3.2 0.00 0.00 0.00 53 996.0
20260905173951 36 93 1.6 3.2 0.00 0.00 0.00 55 995.9
20260905173447 37 110 1.6 1.6 0.00 0.00 0.00 54 996.2
20260905172942 36 103 1.6 3.2 0.00 0.00 0.00 56 996.2
20260905172440 36 61 1.6 3.2 0.00 0.00 0.00 54 996.5
20260905171936 37 104 3.2 3.2 0.00 0.00 0.00 55 996.4
20260905171433 35 39 4.8 4.8 0.00 0.00 0.00 56 996.5
20260905170929 36 106 1.6 1.6 0.00 0.00 0.00 55 996.5
20260905170424 37 94 3.2 3.2 0.00 0.00 0.00 54 996.4
20260905165924 36 87 1.6 3.2 0.00 0.00 0.00 57 996.5
20260905165419 36 88 1.6 1.6 0.00 0.00 0.00 58 996.8
20260905164915 35 150 1.6 3.2 0.00 0.00 0.00 57 997.0
20260905164415 37 78 3.2 4.8 0.00 0.00 0.00 58 996.9
20260905163915 36 59 0.0 1.6 0.00 0.00 0.00 54 997.0
20260905163412 36 100 1.6 1.6 0.00 0.00 0.00 59 997.0
20260905162907 35 102 0.0 0.0 0.00 0.00 0.00 60 997.0
20260905162402 35 112 3.2 3.2 0.00 0.00 0.00 60 997.0
20260905161857 34 101 1.6 3.2 0.00 0.00 0.00 62 997.1
20260905161356 35 112 1.6 1.6 0.00 0.00 0.00 61 997.3
20260905160854 35 110 1.6 1.6 0.00 0.00 0.00 62 997.3
20260905160343 35 105 1.6 1.6 0.00 0.00 0.00 63 997.5
20260905155843 35 166 3.2 3.2 0.00 0.00 0.00 61 997.5
20260905155337 36 100 1.6 1.6 0.00 0.00 0.00 58 997.3
20260905154836 35 93 0.0 0.0 0.00 0.00 0.00 63 997.6
20260905154332 33 103 0.0 1.6 0.00 0.00 0.00 66 997.3
20260905153827 33 105 0.0 1.6 0.00 0.00 0.00 67 997.5
20260905153324 33 343 3.2 3.2 0.00 0.00 0.00 68 997.2
20260905152823 33 107 1.6 1.6 0.00 0.00 0.00 70 997.5
20260905152322 33 97 1.6 1.6 0.00 0.00 0.00 69 997.5
20260905151818 33 110 1.6 3.2 0.00 0.00 0.00 70 997.6
20260905151313 32 102 1.6 3.2 0.00 0.00 0.00 70 997.6
20260905150813 33 161 3.2 3.2 0.00 0.00 0.00 71 997.4
20260905150314 33 56 3.2 3.2 0.00 0.00 0.00 68 997.4
20260905145811 33 98 1.6 1.6 0.00 0.00 0.00 71 997.6
20260905145310 32 106 0.0 1.6 0.00 0.00 0.00 72 997.6
20260905144809 33 72 1.6 1.6 0.00 0.00 0.00 69 997.5
20260905144306 32 103 0.0 1.6 0.00 0.00 0.00 74 997.7
20260905143804 31 105 1.6 1.6 0.00 0.00 0.00 74 997.5
20260905143258 31 98 0.0 1.6 0.00 0.00 0.00 74 997.7
20260905142757 31 103 6.4 9.7 0.00 0.00 0.00 75 997.6
20260905142251 31 115 1.6 3.2 0.00 0.00 0.00 77 997.6
20260905141748 30 233 4.8 4.8 0.00 0.00 0.00 77 997.5
20260905141243 31 144 1.6 3.2 0.00 0.00 0.00 77 997.6
20260905140738 31 103 1.6 1.6 0.00 0.00 0.00 77 997.7
20260905140233 30 91 0.0 1.6 0.00 0.00 0.00 78 997.7
20260905135732 30 94 0.0 0.0 0.00 0.00 0.00 78 997.5
20260905135228 29 120 3.2 3.2 0.00 0.00 0.00 80 997.6
20260905134727 28 110 1.6 3.2 0.00 0.00 0.00 82 997.6
20260905134227 29 260 4.8 4.8 0.00 0.00 0.00 81 997.8
20260905133722 28 4 1.6 1.6 0.00 0.00 0.00 82 997.9
20260905133217 28 124 1.6 1.6 0.00 0.00 0.00 82 997.8
20260905132716 28 106 1.6 3.2 0.00 0.00 0.00 82 998.0
20260905132211 28 154 3.2 3.2 0.00 0.00 0.00 83 997.9
20260905131706 28 171 3.2 3.2 0.00 0.00 0.00 83 997.8
20260905131201 28 100 0.0 0.0 0.00 0.00 0.00 83 997.8
20260905130656 28 106 0.0 1.6 0.00 0.00 0.00 85 997.7
20260905130155 27 115 0.0 0.0 0.00 0.00 0.00 86 998.1
20260905125650 27 115 1.6 1.6 0.00 0.00 0.00 87 998.1
20260905125145 26 101 0.0 1.6 0.00 0.00 0.00 88 998.1
20260905124641 26 104 0.0 0.0 0.00 0.00 0.00 89 998.0
20260905124138 26 108 0.0 0.0 0.00 0.00 0.00 88 997.8
20260905123632 26 111 0.0 1.6 0.00 0.00 0.00 89 998.0
20260905123130 26 108 1.6 1.6 0.00 0.00 0.00 89 997.9
20260905122629 26 109 0.0 0.0 0.00 0.00 0.00 89 997.9
20260905122124 26 106 1.6 1.6 0.00 0.00 0.00 89 998.2
20260905121619 26 95 0.0 0.0 0.00 0.00 0.00 88 998.1
20260905121115 26 95 0.0 0.0 0.00 0.00 0.00 89 998.0
20260905120614 25 96 0.0 0.0 0.00 0.00 0.00 91 998.1
20260905120109 25 96 0.0 0.0 0.00 0.00 0.00 93 998.0
20260905115607 24 96 0.0 0.0 0.00 0.00 0.00 96 998.0
20260905115102 23 96 0.0 1.6 0.00 0.00 0.00 98 997.9
20260905114602 23 96 0.0 0.0 0.00 0.00 0.00 99 997.9
20260905114101 23 95 0.0 0.0 0.00 0.00 0.00 99 997.9
20260905113556 23 96 0.0 0.0 0.00 0.00 0.00 99 997.8
20260905113051 23 93 0.0 0.0 0.00 0.00 0.00 99 997.6
20260905112546 23 92 0.0 0.0 0.00 0.00 0.00 99 997.5
20260905112041 23 92 0.0 0.0 0.00 0.00 0.00 99 997.4
20260905111537 23 93 0.0 1.6 0.00 0.00 0.00 99 997.3
20260905111036 23 99 0.0 0.0 0.00 0.00 0.00 99 997.0
20260905110535 23 103 0.0 0.0 0.00 0.00 0.00 99 997.0
20260905110031 22 96 0.0 0.0 0.00 0.00 0.00 99 996.8
20260905105530 23 95 0.0 0.0 0.00 0.00 0.00 99 997.0
20260905105029 23 95 0.0 0.0 0.00 0.00 0.00 99 996.9
20260905104526 23 95 0.0 0.0 0.00 0.00 0.00 99 996.6